owner,sensor,date,latitude,longitude,air_temperature,qcFlag 
LUMCON,ioos:station:LUMCON:101:1,2005-11-02T03:00:00Z,29.2533,-90.6633,15.5,11111222 
LUMCON,ioos:station:LUMCON:101:1,2005-11-02T23:00:00Z,29.2533,-90.6633,19.9,11111222 
LUMCON,ioos:station:LUMCON:101:1,2005-11-04T14:00:00Z,29.2533,-90.6633,20.3,11111222 
LUMCON,ioos:station:LUMCON:101:1,2005-11-05T09:00:00Z,29.2533,-90.6633,21.9,11111222 
LUMCON,ioos:station:LUMCON:101:1,2005-11-06T14:00:00Z,29.2533,-90.6633,23.5,11111222 
LUMCON,ioos:station:LUMCON:101:1,2005-11-06T20:00:00Z,29.2533,-90.6633,25.0,11111222 
LUMCON,ioos:station:LUMCON:101:1,2005-11-07T20:00:00Z,29.2533,-90.6633,23.6,11111222 
LUMCON,ioos:station:LUMCON:101:1,2005-11-07T23:00:00Z,29.2533,-90.6633,23.4,11111222 
LUMCON,ioos:station:LUMCON:101:1,2005-11-10T20:00:00Z,29.2533,-90.6633,26.7,11111222 
LUMCON,ioos:station:LUMCON:101:1,2005-11-11T20:00:00Z,29.2533,-90.6633,22.5,11111222 
LUMCON,ioos:station:LUMCON:101:1,2005-11-12T16:00:00Z,29.2533,-90.6633,22.9,11111222 
LUMCON,ioos:station:LUMCON:101:1,2005-11-16T20:00:00Z,29.2533,-90.6633,14.0,11111222 
LUMCON,ioos:station:LUMCON:101:1,2005-11-16T21:00:00Z,29.2533,-90.6633,14.0,11111222 
LUMCON,ioos:station:LUMCON:101:1,2005-11-16T22:00:00Z,29.2533,-90.6633,14.0,11111222 
LUMCON,ioos:station:LUMCON:101:1,2005-11-16T23:00:00Z,29.2533,-90.6633,13.4,11111222 
LUMCON,ioos:station:LUMCON:101:1,2005-11-17T00:00:00Z,29.2533,-90.6633,13.0,11111222 
LUMCON,ioos:station:LUMCON:101:1,2005-11-17T01:00:00Z,29.2533,-90.6633,12.0,11111222 
LUMCON,ioos:station:LUMCON:101:1,2005-11-17T02:00:00Z,29.2533,-90.6633,11.0,11111222 
LUMCON,ioos:station:LUMCON:101:1,2005-11-17T03:00:00Z,29.2533,-90.6633,10.0,11111222 
LUMCON,ioos:station:LUMCON:101:1,2005-11-17T04:00:00Z,29.2533,-90.6633,10.0,11111222 
LUMCON,ioos:station:LUMCON:101:1,2005-11-17T05:00:00Z,29.2533,-90.6633,9.0,11111222 
LUMCON,ioos:station:LUMCON:101:1,2005-11-17T06:00:00Z,29.2533,-90.6633,8.0,11111222 
LUMCON,ioos:station:LUMCON:101:1,2005-11-17T07:00:00Z,29.2533,-90.6633,8.0,11111222 
LUMCON,ioos:station:LUMCON:101:1,2005-11-17T08:00:00Z,29.2533,-90.6633,8.0,11111222 
LUMCON,ioos:station:LUMCON:101:1,2005-11-17T09:00:00Z,29.2533,-90.6633,7.0,11111222 
LUMCON,ioos:station:LUMCON:101:1,2005-11-17T10:00:00Z,29.2533,-90.6633,6.8,11111222 
LUMCON,ioos:station:LUMCON:101:1,2005-11-17T11:00:00Z,29.2533,-90.6633,6.0,11111222 
LUMCON,ioos:station:LUMCON:101:1,2005-11-17T12:00:00Z,29.2533,-90.6633,6.0,11111222 
LUMCON,ioos:station:LUMCON:101:1,2005-11-17T13:00:00Z,29.2533,-90.6633,6.0,11111222 
LUMCON,ioos:station:LUMCON:101:1,2005-11-17T14:00:00Z,29.2533,-90.6633,7.0,11111222 
LUMCON,ioos:station:LUMCON:101:1,2005-11-17T15:00:00Z,29.2533,-90.6633,8.0,11111222 
LUMCON,ioos:station:LUMCON:101:1,2005-11-17T16:00:00Z,29.2533,-90.6633,8.3,11111222 
LUMCON,ioos:station:LUMCON:101:1,2005-11-17T17:00:00Z,29.2533,-90.6633,9.1,11111222 
LUMCON,ioos:station:LUMCON:101:1,2005-11-17T18:00:00Z,29.2533,-90.6633,10.0,11111222 
LUMCON,ioos:station:LUMCON:101:1,2005-11-17T19:00:00Z,29.2533,-90.6633,10.6,11111222 
LUMCON,ioos:station:LUMCON:101:1,2005-11-17T20:00:00Z,29.2533,-90.6633,11.3,11111222 
LUMCON,ioos:station:LUMCON:101:1,2005-11-17T21:00:00Z,29.2533,-90.6633,12.1,11111222 
LUMCON,ioos:station:LUMCON:101:1,2005-11-17T22:00:00Z,29.2533,-90.6633,12.0,11111222 
LUMCON,ioos:station:LUMCON:101:1,2005-11-17T23:00:00Z,29.2533,-90.6633,11.0,11111222 
LUMCON,ioos:station:LUMCON:101:1,2005-11-18T00:00:00Z,29.2533,-90.6633,10.0,11111222 
LUMCON,ioos:station:LUMCON:101:1,2005-11-18T01:00:00Z,29.2533,-90.6633,9.0,11111222 
LUMCON,ioos:station:LUMCON:101:1,2005-11-18T02:00:00Z,29.2533,-90.6633,9.2,11111222 
LUMCON,ioos:station:LUMCON:101:1,2005-11-18T03:00:00Z,29.2533,-90.6633,9.0,11111222 
LUMCON,ioos:station:LUMCON:101:1,2005-11-18T05:00:00Z,29.2533,-90.6633,7.0,11111222 
LUMCON,ioos:station:LUMCON:101:1,2005-11-18T06:00:00Z,29.2533,-90.6633,6.9,11111222 
LUMCON,ioos:station:LUMCON:101:1,2005-11-18T07:00:00Z,29.2533,-90.6633,7.0,11111222 
LUMCON,ioos:station:LUMCON:101:1,2005-11-18T08:00:00Z,29.2533,-90.6633,6.0,11111222 
LUMCON,ioos:station:LUMCON:101:1,2005-11-18T09:00:00Z,29.2533,-90.6633,6.0,11111222 
LUMCON,ioos:station:LUMCON:101:1,2005-11-18T10:00:00Z,29.2533,-90.6633,6.0,11111222 
LUMCON,ioos:station:LUMCON:101:1,2005-11-18T11:00:00Z,29.2533,-90.6633,5.5,11111222 
LUMCON,ioos:station:LUMCON:101:1,2005-11-18T12:00:00Z,29.2533,-90.6633,5.0,11111222 
LUMCON,ioos:station:LUMCON:101:1,2005-11-18T13:00:00Z,29.2533,-90.6633,5.0,11111222 
LUMCON,ioos:station:LUMCON:101:1,2005-11-18T14:00:00Z,29.2533,-90.6633,6.0,11111222 
LUMCON,ioos:station:LUMCON:101:1,2005-11-18T15:00:00Z,29.2533,-90.6633,7.0,11111222 
LUMCON,ioos:station:LUMCON:101:1,2005-11-18T16:00:00Z,29.2533,-90.6633,8.4,11111222 
LUMCON,ioos:station:LUMCON:101:1,2005-11-18T17:00:00Z,29.2533,-90.6633,10.0,11111222 
LUMCON,ioos:station:LUMCON:101:1,2005-11-18T18:00:00Z,29.2533,-90.6633,12.0,11111222 
LUMCON,ioos:station:LUMCON:101:1,2005-11-18T19:00:00Z,29.2533,-90.6633,13.0,11111222 
LUMCON,ioos:station:LUMCON:101:1,2005-11-18T20:00:00Z,29.2533,-90.6633,14.2,11111222 
LUMCON,ioos:station:LUMCON:101:1,2005-11-18T21:00:00Z,29.2533,-90.6633,14.1,11111222 
LUMCON,ioos:station:LUMCON:101:1,2005-11-18T22:00:00Z,29.2533,-90.6633,14.0,11111222 
LUMCON,ioos:station:LUMCON:101:1,2005-11-18T23:00:00Z,29.2533,-90.6633,12.5,11111222 
LUMCON,ioos:station:LUMCON:101:1,2005-11-19T00:00:00Z,29.2533,-90.6633,11.0,11111222 
LUMCON,ioos:station:LUMCON:101:1,2005-11-19T01:00:00Z,29.2533,-90.6633,11.0,11111222 
LUMCON,ioos:station:LUMCON:101:1,2005-11-19T02:00:00Z,29.2533,-90.6633,10.7,11111222 
LUMCON,ioos:station:LUMCON:101:1,2005-11-19T03:00:00Z,29.2533,-90.6633,10.4,11111222 
LUMCON,ioos:station:LUMCON:101:1,2005-11-19T04:00:00Z,29.2533,-90.6633,10.0,11111222 
LUMCON,ioos:station:LUMCON:101:1,2005-11-19T05:00:00Z,29.2533,-90.6633,10.0,11111222 
LUMCON,ioos:station:LUMCON:101:1,2005-11-19T06:00:00Z,29.2533,-90.6633,9.8,11111222 
LUMCON,ioos:station:LUMCON:101:1,2005-11-19T07:00:00Z,29.2533,-90.6633,9.0,11111222 
LUMCON,ioos:station:LUMCON:101:1,2005-11-19T08:00:00Z,29.2533,-90.6633,9.0,11111222 
LUMCON,ioos:station:LUMCON:101:1,2005-11-19T09:00:00Z,29.2533,-90.6633,8.0,11111222 
LUMCON,ioos:station:LUMCON:101:1,2005-11-19T10:00:00Z,29.2533,-90.6633,8.0,11111222 
LUMCON,ioos:station:LUMCON:101:1,2005-11-19T11:00:00Z,29.2533,-90.6633,8.0,11111222 
LUMCON,ioos:station:LUMCON:101:1,2005-11-19T12:00:00Z,29.2533,-90.6633,8.0,11111222 
LUMCON,ioos:station:LUMCON:101:1,2005-11-19T13:00:00Z,29.2533,-90.6633,8.0,11111222 
LUMCON,ioos:station:LUMCON:101:1,2005-11-19T14:00:00Z,29.2533,-90.6633,11.0,11111222 
LUMCON,ioos:station:LUMCON:101:1,2005-11-19T15:00:00Z,29.2533,-90.6633,13.0,11111222 
LUMCON,ioos:station:LUMCON:101:1,2005-11-19T16:00:00Z,29.2533,-90.6633,14.1,11111222 
LUMCON,ioos:station:LUMCON:101:1,2005-11-19T17:00:00Z,29.2533,-90.6633,16.0,11111222 
LUMCON,ioos:station:LUMCON:101:1,2005-11-19T18:00:00Z,29.2533,-90.6633,17.1,11111222 
LUMCON,ioos:station:LUMCON:101:1,2005-11-19T19:00:00Z,29.2533,-90.6633,18.0,11111222 
LUMCON,ioos:station:LUMCON:101:1,2005-11-19T20:00:00Z,29.2533,-90.6633,18.8,11111222 
LUMCON,ioos:station:LUMCON:101:1,2005-11-19T21:00:00Z,29.2533,-90.6633,19.0,11111222 
LUMCON,ioos:station:LUMCON:101:1,2005-11-19T22:00:00Z,29.2533,-90.6633,18.0,11111222 
LUMCON,ioos:station:LUMCON:101:1,2005-11-19T23:00:00Z,29.2533,-90.6633,17.0,11111222 
LUMCON,ioos:station:LUMCON:101:1,2005-11-20T00:00:00Z,29.2533,-90.6633,16.0,11111222 
LUMCON,ioos:station:LUMCON:101:1,2005-11-20T01:00:00Z,29.2533,-90.6633,15.0,11111222 
LUMCON,ioos:station:LUMCON:101:1,2005-11-20T02:00:00Z,29.2533,-90.6633,14.0,11111222 
LUMCON,ioos:station:LUMCON:101:1,2005-11-20T03:00:00Z,29.2533,-90.6633,14.0,11111222 
LUMCON,ioos:station:LUMCON:101:1,2005-11-20T04:00:00Z,29.2533,-90.6633,14.0,11111222 
LUMCON,ioos:station:LUMCON:101:1,2005-11-20T05:00:00Z,29.2533,-90.6633,13.0,11111222 
LUMCON,ioos:station:LUMCON:101:1,2005-11-20T06:00:00Z,29.2533,-90.6633,13.0,11111222 
LUMCON,ioos:station:LUMCON:101:1,2005-11-20T07:00:00Z,29.2533,-90.6633,12.1,11111222 
LUMCON,ioos:station:LUMCON:101:1,2005-11-20T08:00:00Z,29.2533,-90.6633,12.1,11111222 
LUMCON,ioos:station:LUMCON:101:1,2005-11-20T09:00:00Z,29.2533,-90.6633,12.0,11111222 
LUMCON,ioos:station:LUMCON:101:1,2005-11-20T10:00:00Z,29.2533,-90.6633,12.0,11111222 
LUMCON,ioos:station:LUMCON:101:1,2005-11-20T11:00:00Z,29.2533,-90.6633,12.1,11111222 
LUMCON,ioos:station:LUMCON:101:1,2005-11-20T12:00:00Z,29.2533,-90.6633,12.0,11111222 
LUMCON,ioos:station:LUMCON:101:1,2005-11-20T13:00:00Z,29.2533,-90.6633,12.0,11111222 
LUMCON,ioos:station:LUMCON:101:1,2005-11-20T14:00:00Z,29.2533,-90.6633,13.0,11111222 
LUMCON,ioos:station:LUMCON:101:1,2005-11-20T15:00:00Z,29.2533,-90.6633,15.1,11111222 
LUMCON,ioos:station:LUMCON:101:1,2005-11-20T16:00:00Z,29.2533,-90.6633,17.0,11111222 
LUMCON,ioos:station:LUMCON:101:1,2005-11-20T17:00:00Z,29.2533,-90.6633,17.4,11111222 
LUMCON,ioos:station:LUMCON:101:1,2005-11-20T18:00:00Z,29.2533,-90.6633,19.0,11111222 
LUMCON,ioos:station:LUMCON:101:1,2005-11-20T19:00:00Z,29.2533,-90.6633,18.0,11111222 
LUMCON,ioos:station:LUMCON:101:1,2005-11-20T20:00:00Z,29.2533,-90.6633,18.0,11111222 
LUMCON,ioos:station:LUMCON:101:1,2005-11-20T21:00:00Z,29.2533,-90.6633,18.0,11111222 
LUMCON,ioos:station:LUMCON:101:1,2005-11-20T22:00:00Z,29.2533,-90.6633,18.0,11111222 
LUMCON,ioos:station:LUMCON:101:1,2005-11-20T23:00:00Z,29.2533,-90.6633,17.0,11111222 
LUMCON,ioos:station:LUMCON:101:1,2005-11-21T00:00:00Z,29.2533,-90.6633,16.0,11111222 
LUMCON,ioos:station:LUMCON:101:1,2005-11-21T01:00:00Z,29.2533,-90.6633,15.0,11111222 
LUMCON,ioos:station:LUMCON:101:1,2005-11-21T02:00:00Z,29.2533,-90.6633,15.0,11111222 
LUMCON,ioos:station:LUMCON:101:1,2005-11-21T03:00:00Z,29.2533,-90.6633,14.0,11111222 
LUMCON,ioos:station:LUMCON:101:1,2005-11-21T04:00:00Z,29.2533,-90.6633,12.9,11111222 
LUMCON,ioos:station:LUMCON:101:1,2005-11-21T05:00:00Z,29.2533,-90.6633,12.0,11111222 
LUMCON,ioos:station:LUMCON:101:1,2005-11-21T06:00:00Z,29.2533,-90.6633,12.0,11111222 
LUMCON,ioos:station:LUMCON:101:1,2005-11-21T07:00:00Z,29.2533,-90.6633,12.0,11111222 
LUMCON,ioos:station:LUMCON:101:1,2005-11-21T08:00:00Z,29.2533,-90.6633,12.0,11111222 
LUMCON,ioos:station:LUMCON:101:1,2005-11-21T09:00:00Z,29.2533,-90.6633,11.0,11111222 
LUMCON,ioos:station:LUMCON:101:1,2005-11-21T10:00:00Z,29.2533,-90.6633,11.0,11111222 
LUMCON,ioos:station:LUMCON:101:1,2005-11-21T11:00:00Z,29.2533,-90.6633,10.0,11111222 
LUMCON,ioos:station:LUMCON:101:1,2005-11-21T12:00:00Z,29.2533,-90.6633,9.7,11111222 
LUMCON,ioos:station:LUMCON:101:1,2005-11-21T13:00:00Z,29.2533,-90.6633,9.0,11111222 
LUMCON,ioos:station:LUMCON:101:1,2005-11-21T14:00:00Z,29.2533,-90.6633,10.3,11111222 
LUMCON,ioos:station:LUMCON:101:1,2005-11-21T15:00:00Z,29.2533,-90.6633,12.0,11111222 
LUMCON,ioos:station:LUMCON:101:1,2005-11-21T16:00:00Z,29.2533,-90.6633,12.0,11111222 
LUMCON,ioos:station:LUMCON:101:1,2005-11-21T17:00:00Z,29.2533,-90.6633,13.0,11111222 
LUMCON,ioos:station:LUMCON:101:1,2005-11-21T18:00:00Z,29.2533,-90.6633,13.5,11111222 
LUMCON,ioos:station:LUMCON:101:1,2005-11-21T19:00:00Z,29.2533,-90.6633,14.0,11111222 
LUMCON,ioos:station:LUMCON:101:1,2005-11-21T20:00:00Z,29.2533,-90.6633,14.6,11111222 
LUMCON,ioos:station:LUMCON:101:1,2005-11-21T21:00:00Z,29.2533,-90.6633,15.0,11111222 
LUMCON,ioos:station:LUMCON:101:1,2005-11-21T22:00:00Z,29.2533,-90.6633,15.0,11111222 
LUMCON,ioos:station:LUMCON:101:1,2005-11-21T23:00:00Z,29.2533,-90.6633,14.0,11111222 
LUMCON,ioos:station:LUMCON:101:1,2005-11-22T00:00:00Z,29.2533,-90.6633,13.0,11111222 
LUMCON,ioos:station:LUMCON:101:1,2005-11-22T01:00:00Z,29.2533,-90.6633,12.0,11111222 
LUMCON,ioos:station:LUMCON:101:1,2005-11-22T02:00:00Z,29.2533,-90.6633,11.0,11111222 
LUMCON,ioos:station:LUMCON:101:1,2005-11-22T03:00:00Z,29.2533,-90.6633,11.0,11111222 
LUMCON,ioos:station:LUMCON:101:1,2005-11-22T04:00:00Z,29.2533,-90.6633,11.0,11111222 
LUMCON,ioos:station:LUMCON:101:1,2005-11-22T05:00:00Z,29.2533,-90.6633,10.0,11111222 
LUMCON,ioos:station:LUMCON:101:1,2005-11-22T06:00:00Z,29.2533,-90.6633,11.0,11111222 
LUMCON,ioos:station:LUMCON:101:1,2005-11-22T07:00:00Z,29.2533,-90.6633,10.3,11111222 
LUMCON,ioos:station:LUMCON:101:1,2005-11-22T08:00:00Z,29.2533,-90.6633,10.0,11111222 
LUMCON,ioos:station:LUMCON:101:1,2005-11-22T09:00:00Z,29.2533,-90.6633,9.0,11111222 
LUMCON,ioos:station:LUMCON:101:1,2005-11-22T10:00:00Z,29.2533,-90.6633,9.0,11111222 
LUMCON,ioos:station:LUMCON:101:1,2005-11-22T11:00:00Z,29.2533,-90.6633,9.0,11111222 
LUMCON,ioos:station:LUMCON:101:1,2005-11-22T12:00:00Z,29.2533,-90.6633,8.0,11111222 
LUMCON,ioos:station:LUMCON:101:1,2005-11-22T16:00:00Z,29.2533,-90.6633,14.0,11111222 
LUMCON,ioos:station:LUMCON:101:1,2005-11-22T17:00:00Z,29.2533,-90.6633,15.0,11111222 
LUMCON,ioos:station:LUMCON:101:1,2005-11-22T18:00:00Z,29.2533,-90.6633,16.3,11111222 
LUMCON,ioos:station:LUMCON:101:1,2005-11-22T19:00:00Z,29.2533,-90.6633,17.9,11111222 
LUMCON,ioos:station:LUMCON:101:1,2005-11-22T20:00:00Z,29.2533,-90.6633,18.0,11111222 
LUMCON,ioos:station:LUMCON:101:1,2005-11-22T21:00:00Z,29.2533,-90.6633,17.9,11111222 
LUMCON,ioos:station:LUMCON:101:1,2005-11-22T22:00:00Z,29.2533,-90.6633,17.0,11111222 
LUMCON,ioos:station:LUMCON:101:1,2005-11-22T23:00:00Z,29.2533,-90.6633,15.6,11111222 
LUMCON,ioos:station:LUMCON:101:1,2005-11-23T00:00:00Z,29.2533,-90.6633,14.0,11111222 
LUMCON,ioos:station:LUMCON:101:1,2005-11-23T01:00:00Z,29.2533,-90.6633,13.7,11111222 
LUMCON,ioos:station:LUMCON:101:1,2005-11-23T02:00:00Z,29.2533,-90.6633,13.0,11111222 
LUMCON,ioos:station:LUMCON:101:1,2005-11-23T03:00:00Z,29.2533,-90.6633,13.8,11111222 
LUMCON,ioos:station:LUMCON:101:1,2005-11-23T04:00:00Z,29.2533,-90.6633,12.2,11111222 
LUMCON,ioos:station:LUMCON:101:1,2005-11-23T05:00:00Z,29.2533,-90.6633,12.0,11111222 
LUMCON,ioos:station:LUMCON:101:1,2005-11-23T06:00:00Z,29.2533,-90.6633,12.0,11111222 
LUMCON,ioos:station:LUMCON:101:1,2005-11-23T07:00:00Z,29.2533,-90.6633,12.0,11111222 
LUMCON,ioos:station:LUMCON:101:1,2005-11-23T08:00:00Z,29.2533,-90.6633,12.0,11111222 
LUMCON,ioos:station:LUMCON:101:1,2005-11-23T09:00:00Z,29.2533,-90.6633,12.0,11111222 
LUMCON,ioos:station:LUMCON:101:1,2005-11-23T10:00:00Z,29.2533,-90.6633,11.0,11111222 
LUMCON,ioos:station:LUMCON:101:1,2005-11-23T11:00:00Z,29.2533,-90.6633,11.0,11111222 
LUMCON,ioos:station:LUMCON:101:1,2005-11-23T12:00:00Z,29.2533,-90.6633,11.0,11111222 
LUMCON,ioos:station:LUMCON:101:1,2005-11-23T13:00:00Z,29.2533,-90.6633,12.0,11111222 
LUMCON,ioos:station:LUMCON:101:1,2005-11-23T14:00:00Z,29.2533,-90.6633,13.6,11111222 
LUMCON,ioos:station:LUMCON:101:1,2005-11-23T15:00:00Z,29.2533,-90.6633,15.0,11111222 
LUMCON,ioos:station:LUMCON:101:1,2005-11-23T16:00:00Z,29.2533,-90.6633,17.0,11111222 
LUMCON,ioos:station:LUMCON:101:1,2005-11-23T17:00:00Z,29.2533,-90.6633,18.0,11111222 
LUMCON,ioos:station:LUMCON:101:1,2005-11-23T18:00:00Z,29.2533,-90.6633,19.0,11111222 
LUMCON,ioos:station:LUMCON:101:1,2005-11-23T19:00:00Z,29.2533,-90.6633,20.0,11111222 
LUMCON,ioos:station:LUMCON:101:1,2005-11-23T20:00:00Z,29.2533,-90.6633,20.8,11111222 
LUMCON,ioos:station:LUMCON:101:1,2005-11-23T21:00:00Z,29.2533,-90.6633,21.0,11111222 
LUMCON,ioos:station:LUMCON:101:1,2005-11-23T22:00:00Z,29.2533,-90.6633,21.0,11111222 
LUMCON,ioos:station:LUMCON:101:1,2005-11-23T23:00:00Z,29.2533,-90.6633,19.0,11111222 
LUMCON,ioos:station:LUMCON:101:1,2005-11-24T00:00:00Z,29.2533,-90.6633,18.0,11111222 
LUMCON,ioos:station:LUMCON:101:1,2005-11-24T01:00:00Z,29.2533,-90.6633,17.0,11111222 
LUMCON,ioos:station:LUMCON:101:1,2005-11-24T02:00:00Z,29.2533,-90.6633,18.0,11111222 
LUMCON,ioos:station:LUMCON:101:1,2005-11-24T03:00:00Z,29.2533,-90.6633,18.0,11111222 
LUMCON,ioos:station:LUMCON:101:1,2005-11-24T04:00:00Z,29.2533,-90.6633,18.0,11111222 
LUMCON,ioos:station:LUMCON:101:1,2005-11-24T05:00:00Z,29.2533,-90.6633,18.0,11111222 
LUMCON,ioos:station:LUMCON:101:1,2005-11-24T06:00:00Z,29.2533,-90.6633,18.0,11111222 
LUMCON,ioos:station:LUMCON:101:1,2005-11-24T07:00:00Z,29.2533,-90.6633,18.0,11111222 
LUMCON,ioos:station:LUMCON:101:1,2005-11-24T08:00:00Z,29.2533,-90.6633,18.0,11111222 
LUMCON,ioos:station:LUMCON:101:1,2005-11-24T09:00:00Z,29.2533,-90.6633,17.0,11111222 
LUMCON,ioos:station:LUMCON:101:1,2005-11-24T10:00:00Z,29.2533,-90.6633,16.0,11111222 
LUMCON,ioos:station:LUMCON:101:1,2005-11-24T11:00:00Z,29.2533,-90.6633,16.0,11111222 
LUMCON,ioos:station:LUMCON:101:1,2005-11-24T12:00:00Z,29.2533,-90.6633,16.0,11111222 
LUMCON,ioos:station:LUMCON:101:1,2005-11-24T13:00:00Z,29.2533,-90.6633,16.0,11111222 
LUMCON,ioos:station:LUMCON:101:1,2005-11-24T14:00:00Z,29.2533,-90.6633,17.4,11111222 
LUMCON,ioos:station:LUMCON:101:1,2005-11-24T15:00:00Z,29.2533,-90.6633,20.0,11111222 
LUMCON,ioos:station:LUMCON:101:1,2005-11-24T16:00:00Z,29.2533,-90.6633,22.0,11111222 
LUMCON,ioos:station:LUMCON:101:1,2005-11-24T17:00:00Z,29.2533,-90.6633,23.0,11111222 
LUMCON,ioos:station:LUMCON:101:1,2005-11-24T18:00:00Z,29.2533,-90.6633,23.0,11111222 
LUMCON,ioos:station:LUMCON:101:1,2005-11-24T19:00:00Z,29.2533,-90.6633,23.0,11111222 
LUMCON,ioos:station:LUMCON:101:1,2005-11-24T20:00:00Z,29.2533,-90.6633,24.0,11111222 
LUMCON,ioos:station:LUMCON:101:1,2005-11-24T21:00:00Z,29.2533,-90.6633,23.0,11111222 
LUMCON,ioos:station:LUMCON:101:1,2005-11-24T22:00:00Z,29.2533,-90.6633,22.0,11111222 
LUMCON,ioos:station:LUMCON:101:1,2005-11-24T23:00:00Z,29.2533,-90.6633,21.0,11111222 
LUMCON,ioos:station:LUMCON:101:1,2005-11-25T00:00:00Z,29.2533,-90.6633,20.0,11111222 
LUMCON,ioos:station:LUMCON:101:1,2005-11-25T01:00:00Z,29.2533,-90.6633,19.0,11111222 
LUMCON,ioos:station:LUMCON:101:1,2005-11-25T02:00:00Z,29.2533,-90.6633,19.0,11111222 
LUMCON,ioos:station:LUMCON:101:1,2005-11-25T03:00:00Z,29.2533,-90.6633,18.0,11111222 
LUMCON,ioos:station:LUMCON:101:1,2005-11-25T04:00:00Z,29.2533,-90.6633,18.0,11111222 
LUMCON,ioos:station:LUMCON:101:1,2005-11-25T05:00:00Z,29.2533,-90.6633,18.0,11111222 
LUMCON,ioos:station:LUMCON:101:1,2005-11-25T06:00:00Z,29.2533,-90.6633,18.0,11111222 
LUMCON,ioos:station:LUMCON:101:1,2005-11-25T07:00:00Z,29.2533,-90.6633,18.0,11111222 
LUMCON,ioos:station:LUMCON:101:1,2005-11-25T08:00:00Z,29.2533,-90.6633,18.0,11111222 
LUMCON,ioos:station:LUMCON:101:1,2005-11-25T09:00:00Z,29.2533,-90.6633,17.2,11111222 
LUMCON,ioos:station:LUMCON:101:1,2005-11-25T10:00:00Z,29.2533,-90.6633,17.0,11111222 
LUMCON,ioos:station:LUMCON:101:1,2005-11-25T11:00:00Z,29.2533,-90.6633,16.6,11111222 
LUMCON,ioos:station:LUMCON:101:1,2005-11-25T12:00:00Z,29.2533,-90.6633,16.0,11111222 
LUMCON,ioos:station:LUMCON:101:1,2005-11-25T13:00:00Z,29.2533,-90.6633,15.0,11111222 
LUMCON,ioos:station:LUMCON:101:1,2005-11-25T14:00:00Z,29.2533,-90.6633,16.0,11111222 
LUMCON,ioos:station:LUMCON:101:1,2005-11-25T15:00:00Z,29.2533,-90.6633,17.0,11111222 
LUMCON,ioos:station:LUMCON:101:1,2005-11-25T16:00:00Z,29.2533,-90.6633,17.3,11111222 
LUMCON,ioos:station:LUMCON:101:1,2005-11-25T17:00:00Z,29.2533,-90.6633,18.0,11111222 
LUMCON,ioos:station:LUMCON:101:1,2005-11-25T18:00:00Z,29.2533,-90.6633,18.2,11111222 
LUMCON,ioos:station:LUMCON:101:1,2005-11-25T19:00:00Z,29.2533,-90.6633,19.0,11111222 
LUMCON,ioos:station:LUMCON:101:1,2005-11-25T20:00:00Z,29.2533,-90.6633,19.9,11111222 
LUMCON,ioos:station:LUMCON:101:1,2005-11-25T21:00:00Z,29.2533,-90.6633,19.9,11111222 
LUMCON,ioos:station:LUMCON:101:1,2005-11-25T22:00:00Z,29.2533,-90.6633,20.0,11111222 
LUMCON,ioos:station:LUMCON:101:1,2005-11-25T23:00:00Z,29.2533,-90.6633,19.0,11111222 
LUMCON,ioos:station:LUMCON:101:1,2005-11-26T00:00:00Z,29.2533,-90.6633,18.0,11111222 
LUMCON,ioos:station:LUMCON:101:1,2005-11-26T01:00:00Z,29.2533,-90.6633,18.0,11111222 
LUMCON,ioos:station:LUMCON:101:1,2005-11-26T02:00:00Z,29.2533,-90.6633,18.0,11111222 
LUMCON,ioos:station:LUMCON:101:1,2005-11-26T03:00:00Z,29.2533,-90.6633,17.0,11111222 
LUMCON,ioos:station:LUMCON:101:1,2005-11-26T04:00:00Z,29.2533,-90.6633,17.0,11111222 
LUMCON,ioos:station:LUMCON:101:1,2005-11-26T05:00:00Z,29.2533,-90.6633,17.0,11111222 
LUMCON,ioos:station:LUMCON:101:1,2005-11-26T06:00:00Z,29.2533,-90.6633,17.0,11111222 
LUMCON,ioos:station:LUMCON:101:1,2005-11-26T07:00:00Z,29.2533,-90.6633,17.0,11111222 
LUMCON,ioos:station:LUMCON:101:1,2005-11-26T08:00:00Z,29.2533,-90.6633,18.0,11111222 
LUMCON,ioos:station:LUMCON:101:1,2005-11-26T09:00:00Z,29.2533,-90.6633,17.0,11111222 
LUMCON,ioos:station:LUMCON:101:1,2005-11-26T10:00:00Z,29.2533,-90.6633,17.0,11111222 
LUMCON,ioos:station:LUMCON:101:1,2005-11-26T11:00:00Z,29.2533,-90.6633,18.0,11111222 
LUMCON,ioos:station:LUMCON:101:1,2005-11-26T12:00:00Z,29.2533,-90.6633,18.0,11111222 
LUMCON,ioos:station:LUMCON:101:1,2005-11-26T13:00:00Z,29.2533,-90.6633,18.0,11111222 
LUMCON,ioos:station:LUMCON:101:1,2005-11-26T14:00:00Z,29.2533,-90.6633,19.0,11111222 
LUMCON,ioos:station:LUMCON:101:1,2005-11-26T15:00:00Z,29.2533,-90.6633,20.0,11111222 
LUMCON,ioos:station:LUMCON:101:1,2005-11-26T16:00:00Z,29.2533,-90.6633,21.0,11111222 
LUMCON,ioos:station:LUMCON:101:1,2005-11-26T17:00:00Z,29.2533,-90.6633,22.0,11111222 
LUMCON,ioos:station:LUMCON:101:1,2005-11-26T18:00:00Z,29.2533,-90.6633,22.6,11111222 
LUMCON,ioos:station:LUMCON:101:1,2005-11-26T19:00:00Z,29.2533,-90.6633,23.0,11111222 
LUMCON,ioos:station:LUMCON:101:1,2005-11-26T20:00:00Z,29.2533,-90.6633,22.1,11111222 
LUMCON,ioos:station:LUMCON:101:1,2005-11-26T21:00:00Z,29.2533,-90.6633,22.0,11111222 
LUMCON,ioos:station:LUMCON:101:1,2005-11-26T22:00:00Z,29.2533,-90.6633,21.0,11111222 
LUMCON,ioos:station:LUMCON:101:1,2005-11-26T23:00:00Z,29.2533,-90.6633,21.0,11111222 
LUMCON,ioos:station:LUMCON:101:1,2005-11-27T00:00:00Z,29.2533,-90.6633,21.0,11111222 
LUMCON,ioos:station:LUMCON:101:1,2005-11-27T01:00:00Z,29.2533,-90.6633,21.0,11111222 
LUMCON,ioos:station:LUMCON:101:1,2005-11-27T02:00:00Z,29.2533,-90.6633,17.0,11111222 
LUMCON,ioos:station:LUMCON:101:1,2005-11-27T03:00:00Z,29.2533,-90.6633,17.0,11111222 
LUMCON,ioos:station:LUMCON:101:1,2005-11-27T04:00:00Z,29.2533,-90.6633,17.0,11111222 
LUMCON,ioos:station:LUMCON:101:1,2005-11-27T05:00:00Z,29.2533,-90.6633,17.0,11111222 
LUMCON,ioos:station:LUMCON:101:1,2005-11-27T06:00:00Z,29.2533,-90.6633,17.0,11111222 
LUMCON,ioos:station:LUMCON:101:1,2005-11-27T07:00:00Z,29.2533,-90.6633,17.0,11111222 
LUMCON,ioos:station:LUMCON:101:1,2005-11-27T08:00:00Z,29.2533,-90.6633,17.4,11111222 
LUMCON,ioos:station:LUMCON:101:1,2005-11-27T09:00:00Z,29.2533,-90.6633,18.0,11111222 
LUMCON,ioos:station:LUMCON:101:1,2005-11-27T10:00:00Z,29.2533,-90.6633,18.7,11111222 
LUMCON,ioos:station:LUMCON:101:1,2005-11-27T11:00:00Z,29.2533,-90.6633,19.0,11111222 
LUMCON,ioos:station:LUMCON:101:1,2005-11-27T12:00:00Z,29.2533,-90.6633,19.0,11111222 
LUMCON,ioos:station:LUMCON:101:1,2005-11-27T13:00:00Z,29.2533,-90.6633,19.1,11111222 
LUMCON,ioos:station:LUMCON:101:1,2005-11-27T14:00:00Z,29.2533,-90.6633,21.0,11111222 
LUMCON,ioos:station:LUMCON:101:1,2005-11-27T15:00:00Z,29.2533,-90.6633,22.0,11111222 
LUMCON,ioos:station:LUMCON:101:1,2005-11-27T16:00:00Z,29.2533,-90.6633,22.0,11111222 
LUMCON,ioos:station:LUMCON:101:1,2005-11-28T00:00:00Z,29.2533,-90.6633,21.0,11111222 
LUMCON,ioos:station:LUMCON:101:1,2005-11-28T01:00:00Z,29.2533,-90.6633,21.0,11111222 
LUMCON,ioos:station:LUMCON:101:1,2005-11-28T02:00:00Z,29.2533,-90.6633,21.0,11111222 
LUMCON,ioos:station:LUMCON:101:1,2005-11-28T03:00:00Z,29.2533,-90.6633,21.0,11111222 
LUMCON,ioos:station:LUMCON:101:1,2005-11-28T04:00:00Z,29.2533,-90.6633,21.0,11111222 
LUMCON,ioos:station:LUMCON:101:1,2005-11-28T05:00:00Z,29.2533,-90.6633,21.0,11111222 
LUMCON,ioos:station:LUMCON:101:1,2005-11-28T06:00:00Z,29.2533,-90.6633,21.2,11111222 
LUMCON,ioos:station:LUMCON:101:1,2005-11-28T07:00:00Z,29.2533,-90.6633,21.0,11111222 
LUMCON,ioos:station:LUMCON:101:1,2005-11-28T08:00:00Z,29.2533,-90.6633,21.0,11111222 
LUMCON,ioos:station:LUMCON:101:1,2005-11-28T09:00:00Z,29.2533,-90.6633,21.0,11111222 